Weather History for KGEG - May, 2013

Change the Weather History Date:

Friday, May 17, 2013

  Actual Average Record
Temperature  
Mean Temperature 57 °F 56 °F  
Max Temperature 68 °F 67 °F 92 °F (2006)
Min Temperature 45 °F 44 °F 27 °F (1966)
Degree Days  
Heating Degree Days 8 10  
Month to date heating degree days 104 206  
Since 1 July heating degree days 5932 6342  
Cooling Degree Days 0 0  
Month to date cooling degree days 30 0  
Year to date cooling degree days 30 0  
Growing Degree Days 6 (Base 50)    
Moisture  
Dew Point 44 °F    
Average Humidity 65    
Maximum Humidity 93    
Minimum Humidity 37    
Precipitation  
Precipitation 0.00 in 0.05 in 0.90 in (1998)
Month to date precipitation 0.26 0.80  
Year to date precipitation 4.39 6.81  
Snow  
Snow 0.00 in 0.00 in T in (2003)
Month to date snowfall 0.0 0.1  
Since 1 July snowfall 43.5 44.9  
Snow Depth 0.00 in    
Sea Level Pressure  
Sea Level Pressure 29.88 in    
Wind  
Wind Speed 7 mph (WSW)    
Max Wind Speed 24 mph    
Max Gust Speed 30 mph    
Visibility 10 miles    
Events Fog    
T = Trace of Precipitation, MM = Missing Value Source: NWS Daily Summary

Daily Weather History Graph

Daily Weather History Graph

Search for Another Location

Airport or City:

Trip Planner

Search our weather history database for the weather conditions in past years. The results will help you decide how hot, cold, wet, or windy it might be!

Date:

Astronomy

May. 17, 2013 Rise Set
Actual Time 5:09 AM PDT 8:23 PM PDT
Civil Twilight 4:32 AM PDT 9:01 PM PDT
Nautical Twilight 3:44 AM PDT 9:49 PM PDT
Astronomical Twilight 2:43 AM PDT 10:51 PM PDT
Moon 11:59 AM PDT (5/17) 1:07 AM PDT (5/17)
Length of Visible Light 16h 28m
Length of Day
15h 14m
Waxing Crescent, 46% of the Moon is Illuminated
May 17
Waxing Crescent
May 17
First Quarter
May 24
Full
May 31
Last Quarter
Jun 8
New

Hourly Weather History & Observations

Time (PDT) Temp. Windchill Dew Point Humidity Pressure Visibility Wind Dir Wind Speed Gust Speed Precip Events Conditions
12:53 AM 52.0 °F - 44.1 °F 74% 29.88 in 10.0 mi Calm Calm - N/A   Mostly Cloudy
1:53 AM 48.0 °F - 44.1 °F 86% 29.88 in 10.0 mi NNE 3.5 mph - N/A   Scattered Clouds
2:53 AM 46.9 °F - 43.0 °F 86% 29.87 in 10.0 mi North 3.5 mph - N/A   Partly Cloudy
3:53 AM 46.9 °F - 44.1 °F 90% 29.87 in 10.0 mi ENE 3.5 mph - N/A   Scattered Clouds
4:53 AM 46.4 °F 44.3 °F 44.6 °F 93% 29.88 in 10.0 mi NE 4.6 mph - N/A Fog Shallow Fog
5:53 AM 45.0 °F - 43.0 °F 93% 29.89 in 10.0 mi Calm Calm - N/A Fog Shallow Fog
6:53 AM 48.9 °F - 44.1 °F 83% 29.89 in 10.0 mi NE 5.8 mph - N/A   Overcast
7:53 AM 51.1 °F - 44.1 °F 77% 29.89 in 10.0 mi ENE 4.6 mph - N/A   Mostly Cloudy
8:53 AM 55.0 °F - 45.0 °F 69% 29.89 in 10.0 mi Variable 3.5 mph - N/A   Mostly Cloudy
9:53 AM 57.9 °F - 45.0 °F 62% 29.89 in 10.0 mi ENE 3.5 mph - N/A   Mostly Cloudy
10:53 AM 60.1 °F - 44.1 °F 55% 29.88 in 10.0 mi SSE 3.5 mph - N/A   Mostly Cloudy
11:53 AM 60.8 °F - 42.8 °F 52% 29.89 in 10.0 mi West 3.5 mph - N/A   Mostly Cloudy
12:53 PM 64.9 °F - 39.0 °F 39% 29.86 in 10.0 mi Variable 5.8 mph - N/A   Mostly Cloudy
1:53 PM 64.9 °F - 43.0 °F 45% 29.85 in 10.0 mi SW 10.4 mph - N/A   Mostly Cloudy
2:53 PM 66.0 °F - 39.9 °F 38% 29.85 in 10.0 mi SW 8.1 mph - N/A   Mostly Cloudy
3:53 PM 66.9 °F - 39.0 °F 36% 29.84 in 10.0 mi West 9.2 mph - N/A   Mostly Cloudy
4:53 PM 64.0 °F - 42.1 °F 45% 29.85 in 10.0 mi West 21.9 mph 29.9 mph N/A   Mostly Cloudy
5:53 PM 62.1 °F - 42.1 °F 48% 29.87 in 10.0 mi WSW 17.3 mph - N/A   Mostly Cloudy
6:53 PM 62.1 °F - 43.0 °F 50% 29.88 in 10.0 mi WSW 15.0 mph - N/A   Overcast
7:53 PM 57.9 °F - 44.1 °F 60% 29.90 in 10.0 mi WSW 11.5 mph - N/A   Overcast
8:53 PM 55.9 °F - 45.0 °F 67% 29.91 in 10.0 mi SW 8.1 mph - N/A   Overcast
9:53 PM 55.0 °F - 45.0 °F 69% 29.92 in 10.0 mi SW 5.8 mph - N/A   Overcast
10:53 PM 55.0 °F - 46.0 °F 72% 29.92 in 10.0 mi SW 8.1 mph - N/A   Overcast
11:53 PM 54.0 °F - 46.0 °F 75% 29.94 in 10.0 mi SSW 9.2 mph - N/A   Overcast